Погода в Вогеле

Словения     46°16′46″N   13°49′45″E
темп.,
°C
ветер,
м/с
пор.,
м/с
влажн.,
%
обл.,
%
осадки,
мм/ч
давл.,
гПа
погр.,
м
6 мая, чт
чт623:00+4ссв2496100 2.1 1011185
02:00+3св3499100 6.1 1013255
05:00+2всв3499100 2.3 1014271
08:00+2всв3499100 5.3 1016207
11:00+1в3499100 2.9 1017232
14:00+2всв2396100 6.7 1016161
17:00+3всв1298100 1.3 1013100
20:00+4юз0199100 1.9 101172
7 мая, пт
пт723:00+5зюз11100100 0.3 101074
02:00+6юз12100100 0.7 100968
05:00+6юз1210099 1.0 1008106
08:00+7юз12100100 1.4 1008106
11:00+7з01100100 1.1 1008136
14:00+7с11100100 3.7 1010160
17:00+5св2398100 2.4 1012211
20:00+4св3498100 3.6 1015193
8 мая, сб
сб823:00+3св349840 0.0 1018143
02:00+2св349743 0.0 1020166
05:00+2св349568 0.0 1021189
08:00+3всв239245 0.1 1023410
11:00+6в3377100 0.0 1023687
14:00+9вюв326583 0.1 10211053
17:00+9юв117098 0.1 1020881
20:00+7всв118441 0.1 102116
9 мая, вс
вс923:00+4ссв219067 0.0 102322
02:00+3ссв22865 0.0 102323
05:00+3ссв22825 0.0 102223
08:00+8в11695 0.0 1021156
11:00+13ю22515 0.0 1020818
14:00+15ююз33483 0.0 10191072
17:00+14юз33585 0.0 1018805
20:00+9зюз229334 0.0 101934
10 мая, пн
пн1023:00+6зсз229824 0.0 102039
02:00+6з239796 0.0 101957
05:00+5з2396100 0.0 101965
08:00+9зюз34852 0.0 1018225
11:00+14юз45665 0.0 1017615
14:00+16юз45613 0.0 1016831
17:00+15юз35685 0.0 1016667
20:00+10зюз2398100 0.0 1016101